TimeGMT,TemperatureF,Dew PointF,Humidity,Sea Level PressureIn,VisibilityMPH,Wind Direction,Wind SpeedMPH,Gust SpeedMPH,PrecipitationIn,Events,Conditions,WindDirDegrees,DateUTC
12:20 AM,51.8,44.6,76,29.56,6.2,South,15.0,-,N/A,,Mostly Cloudy,170,2012-11-26 00:20:00
12:50 AM,51.8,44.6,76,29.53,6.2,South,13.8,-,N/A,Rain,Light Rain,170,2012-11-26 00:50:00
1:20 AM,50.0,44.6,82,29.53,6.2,South,15.0,-,N/A,Rain,Rain,170,2012-11-26 01:20:00
1:50 AM,48.2,44.6,87,29.53,6.2,SSW,9.2,-,N/A,Rain,Light Rain,200,2012-11-26 01:50:00
2:20 AM,48.2,44.6,87,29.53,6.2,South,8.1,-,N/A,,Light Drizzle,180,2012-11-26 02:20:00
2:50 AM,47,45,88,29.52,18,SSE,8.1,,,Rain,Light Rain,160,2012-11-26 02:50:00
2:50 AM,46.4,44.6,93,29.50,6.2,South,6.9,-,N/A,Rain,Light Rain,170,2012-11-26 02:50:00
3:20 AM,46.4,44.6,93,29.50,6.2,South,6.9,-,N/A,,Scattered Clouds,170,2012-11-26 03:20:00
3:50 AM,46.4,44.6,93,29.47,6.2,SE,6.9,-,N/A,,Scattered Clouds,140,2012-11-26 03:50:00
4:20 AM,46.4,44.6,93,29.47,6.2,SSE,6.9,-,N/A,,Scattered Clouds,150,2012-11-26 04:20:00
4:50 AM,46.4,44.6,93,29.47,6.2,SSE,4.6,-,N/A,,Mostly Cloudy,160,2012-11-26 04:50:00
5:20 AM,46.4,44.6,93,29.44,6.2,SE,4.6,-,N/A,,Mostly Cloudy,140,2012-11-26 05:20:00
5:50 AM,46,45,93,29.46,6,SSE,3.5,,,Rain,Light Rain Showers,150,2012-11-26 05:50:00
5:50 AM,46.4,44.6,93,29.44,6.2,Calm,Calm,-,N/A,Rain,Light Rain Showers,0,2012-11-26 05:50:00
6:20 AM,46.4,44.6,93,29.44,6.2,SSE,3.5,-,N/A,,Mostly Cloudy,150,2012-11-26 06:20:00
6:50 AM,44.6,42.8,93,29.44,6.2,SE,3.5,-,N/A,,Partly Cloudy,130,2012-11-26 06:50:00
7:20 AM,44.6,44.6,100,29.44,6.2,ESE,4.6,-,N/A,Rain,Light Rain Showers,120,2012-11-26 07:20:00
7:50 AM,46.4,44.6,93,29.44,5.6,South,8.1,-,N/A,Rain,Rain Showers,180,2012-11-26 07:50:00
8:20 AM,46.4,44.6,93,29.44,6.2,SE,5.8,-,N/A,Rain,Light Rain Showers,140,2012-11-26 08:20:00
8:50 AM,46,44,89,29.46,17,SE,6.9,,,Rain,Light Rain,140,2012-11-26 08:50:00
8:50 AM,46.4,44.6,93,29.44,6.2,SSE,6.9,-,N/A,Rain,Light Rain Showers,160,2012-11-26 08:50:00
9:20 AM,46.4,44.6,93,29.44,6.2,SSE,4.6,-,N/A,,Scattered Clouds,160,2012-11-26 09:20:00
9:50 AM,46.4,44.6,93,29.44,6.2,SSE,3.5,-,N/A,,Scattered Clouds,150,2012-11-26 09:50:00
10:20 AM,46.4,44.6,93,29.44,6.2,SSE,4.6,-,N/A,,Scattered Clouds,160,2012-11-26 10:20:00
10:50 AM,48.2,44.6,87,29.44,6.2,SE,4.6,-,N/A,,Scattered Clouds,130,2012-11-26 10:50:00
11:20 AM,48.2,44.6,87,29.44,6.2,South,4.6,-,N/A,,Scattered Clouds,180,2012-11-26 11:20:00
11:50 AM,48,43,76,29.44,25,SW,3.5,,,,Scattered Clouds,220,2012-11-26 11:50:00
11:50 AM,48.2,42.8,82,29.44,6.2,Variable,3.5,-,N/A,,Scattered Clouds,0,2012-11-26 11:50:00
12:20 PM,48.2,44.6,87,29.42,6.2,Variable,3.5,-,N/A,,Scattered Clouds,0,2012-11-26 12:20:00
12:50 PM,48.2,44.6,87,29.42,6.2,Variable,3.5,-,N/A,,Scattered Clouds,0,2012-11-26 12:50:00
1:20 PM,48.2,42.8,82,29.42,6.2,Variable,3.5,-,N/A,,Scattered Clouds,0,2012-11-26 13:20:00
1:50 PM,48.2,42.8,82,29.42,6.2,NW,4.6,-,N/A,Rain,Light Rain Showers,320,2012-11-26 13:50:00
2:20 PM,48.2,42.8,82,29.42,6.2,NW,4.6,-,N/A,,Scattered Clouds,310,2012-11-26 14:20:00
2:50 PM,47,45,89,29.44,3,NNW,3.5,,,Rain,Light Rain Showers,340,2012-11-26 14:50:00
2:50 PM,46.4,44.6,93,29.44,6.2,North,4.6,-,N/A,Rain,Rain Showers,350,2012-11-26 14:50:00
3:20 PM,46.4,44.6,93,29.44,6.2,North,4.6,-,N/A,,Scattered Clouds,350,2012-11-26 15:20:00
3:50 PM,48.2,44.6,87,29.44,6.2,NW,3.5,-,N/A,,Scattered Clouds,310,2012-11-26 15:50:00
4:20 PM,48.2,42.8,82,29.44,6.2,NW,4.6,-,N/A,,Mostly Cloudy,310,2012-11-26 16:20:00
4:50 PM,46.4,42.8,87,29.44,4.3,WNW,6.9,-,N/A,Rain,Light Rain Showers,290,2012-11-26 16:50:00
5:20 PM,46.4,44.6,93,29.47,3.7,WNW,8.1,-,N/A,Rain,Light Rain Showers,290,2012-11-26 17:20:00
5:50 PM,45,44,95,29.48,5,WNW,8.1,,,Rain,Light Rain,290,2012-11-26 17:50:00
5:50 PM,46.4,44.6,93,29.47,3.7,WNW,9.2,-,N/A,Rain,Light Rain Showers,290,2012-11-26 17:50:00
6:20 PM,46.4,44.6,93,29.47,3.7,WNW,9.2,-,N/A,Rain,Light Rain,290,2012-11-26 18:20:00
6:50 PM,46.4,44.6,93,29.47,3.7,WNW,6.9,-,N/A,Rain,Light Rain,290,2012-11-26 18:50:00
7:20 PM,46.4,44.6,93,29.47,3.7,NW,5.8,-,N/A,Rain,Light Rain,310,2012-11-26 19:20:00
7:50 PM,46.4,44.6,93,29.50,3.7,WNW,5.8,-,N/A,Rain,Light Rain,290,2012-11-26 19:50:00
8:20 PM,46.4,44.6,93,29.50,3.7,WNW,6.9,-,N/A,Rain,Light Rain,290,2012-11-26 20:20:00
8:50 PM,46,44,90,29.51,4,WNW,6.9,,,Rain,Light Rain,300,2012-11-26 20:50:00
8:50 PM,46.4,44.6,93,29.50,3.7,WNW,5.8,-,N/A,Rain,Light Rain,300,2012-11-26 20:50:00
9:20 PM,46.4,44.6,93,29.50,3.7,WNW,5.8,-,N/A,Rain,Light Rain,290,2012-11-26 21:20:00
9:50 PM,46.4,42.8,87,29.50,4.3,WNW,5.8,-,N/A,,Mostly Cloudy,290,2012-11-26 21:50:00
10:20 PM,46.4,42.8,87,29.50,4.3,WNW,9.2,-,N/A,,Mostly Cloudy,290,2012-11-26 22:20:00
10:50 PM,46.4,42.8,87,29.50,4.3,WNW,6.9,-,N/A,,Mostly Cloudy,290,2012-11-26 22:50:00
11:20 PM,44.6,42.8,93,29.53,4.3,WNW,8.1,-,N/A,,Mostly Cloudy,290,2012-11-26 23:20:00
11:50 PM,45,43,91,29.52,4,West,6.9,,,Rain,Light Drizzle,280,2012-11-26 23:50:00
11:50 PM,44.6,42.8,93,29.53,3.7,WNW,8.1,-,N/A,Rain,Light Rain,290,2012-11-26 23:50:00